GW0632 Weather Reports


time (UTC)temp
C
wind
direction
speed
KPH
gust
KPH
rain 1hr
cm
rain 24hr
cm
rain mn
cm
humidity
%
barometer
mb
20260505025045 13 276 4.8 8.0 0.00 0.00 0.00 67 1013.9
20260505024541 13 313 1.6 4.8 0.00 0.00 0.00 66 1013.8
20260505024038 13 277 3.2 4.8 0.00 0.00 0.00 66 1013.8
20260505023535 13 275 4.8 9.7 0.00 0.00 0.00 66 1014.0
20260505023033 13 307 1.6 8.0 0.00 0.00 0.00 65 1014.1
20260505022530 13 301 4.8 4.8 0.00 0.00 0.00 65 1014.0
20260505022028 13 349 4.8 9.7 0.00 0.00 0.00 64 1014.2
20260505021524 13 263 4.8 11.3 0.00 0.00 0.00 63 1014.2
20260505021021 13 19 0.0 3.2 0.00 0.00 0.00 63 1014.1
20260505020520 13 187 1.6 4.8 0.00 0.00 0.00 62 1014.1
20260505020018 13 194 4.8 4.8 0.00 0.00 0.00 62 1014.1
20260505015515 13 120 1.6 9.7 0.00 0.00 0.00 61 1013.9
20260505015012 13 266 3.2 9.7 0.00 0.00 0.00 60 1013.9
20260505014509 13 258 4.8 8.0 0.00 0.00 0.00 60 1013.9
20260505014006 13 247 3.2 9.7 0.00 0.00 0.00 59 1014.0
20260505013503 13 357 0.0 8.0 0.00 0.00 0.00 59 1013.8
20260505013000 14 337 1.6 4.8 0.00 0.00 0.00 59 1013.7
20260505012458 14 289 8.0 9.7 0.00 0.00 0.00 59 1013.8
20260505011955 14 282 4.8 12.9 0.00 0.00 0.00 58 1013.7
20260505011450 14 214 9.7 12.9 0.00 0.00 0.00 58 1013.5
20260505010948 14 321 4.8 4.8 0.00 0.00 0.00 58 1013.7
20260505010443 14 60 0.0 8.0 0.00 0.00 0.00 57 1013.4
20260505005939 14 246 4.8 11.3 0.00 0.00 0.00 57 1013.4
20260505005436 15 203 3.2 8.0 0.00 0.00 0.00 56 1013.2
20260505004934 15 198 1.6 4.8 0.00 0.00 0.00 55 1013.1
20260505004430 15 298 3.2 9.7 0.00 0.00 0.00 54 1013.1
20260505003928 15 355 1.6 9.7 0.00 0.00 0.00 53 1012.9
20260505003425 15 253 4.8 14.5 0.00 0.00 0.00 53 1012.9
20260505002921 15 263 4.8 9.7 0.00 0.00 0.00 52 1012.6
20260505002417 15 347 3.2 9.7 0.00 0.00 0.00 52 1012.5
20260505001916 15 282 3.2 9.7 0.00 0.00 0.00 51 1012.6
20260505001413 16 266 4.8 12.9 0.00 0.00 0.00 51 1012.3
20260505000910 16 235 11.3 16.1 0.00 0.00 0.00 50 1012.1
20260505000408 16 244 8.0 11.3 0.00 0.00 0.00 50 1012.1
20260504235904 16 150 9.7 32.2 0.00 0.00 0.00 50 1012.2
20260504235402 16 224 6.4 12.9 0.00 0.00 0.00 50 1012.3
20260504234857 16 147 3.2 11.3 0.00 0.00 0.00 49 1011.8
20260504234355 16 291 6.4 14.5 0.00 0.00 0.00 49 1011.9
20260504233852 16 226 4.8 14.5 0.00 0.00 0.00 48 1011.8
20260504233347 17 230 22.5 27.4 0.00 0.00 0.00 48 1011.7
20260504232844 17 244 9.7 24.1 0.00 0.00 0.00 48 1011.5
20260504232342 17 265 12.9 16.1 0.00 0.00 0.00 47 1011.6
20260504231838 17 281 9.7 24.1 0.00 0.00 0.00 47 1011.4
20260504231335 17 242 4.8 11.3 0.00 0.00 0.00 47 1011.3
20260504230831 17 259 12.9 17.7 0.00 0.00 0.00 46 1011.4
20260504230329 17 269 14.5 35.4 0.00 0.00 0.00 46 1011.4
20260504225827 18 279 8.0 25.7 0.00 0.00 0.00 46 1011.1
20260504225323 18 279 9.7 22.5 0.00 0.00 0.00 46 1011.0
20260504224821 18 286 12.9 25.7 0.00 0.00 0.00 45 1011.1
20260504224318 18 217 11.3 17.7 0.00 0.00 0.00 45 1011.1
20260504223815 18 244 12.9 17.7 0.00 0.00 0.00 45 1010.8
20260504223310 18 232 11.3 14.5 0.00 0.00 0.00 45 1011.1
20260504222807 18 230 9.7 16.1 0.00 0.00 0.00 44 1010.8
20260504222305 19 174 3.2 14.5 0.00 0.00 0.00 43 1010.7
20260504221802 19 260 12.9 20.9 0.00 0.00 0.00 42 1010.8
20260504221258 19 193 11.3 29.0 0.00 0.00 0.00 42 1010.8
20260504220755 20 280 11.3 14.5 0.00 0.00 0.00 41 1010.6
20260504220252 20 231 19.3 25.7 0.00 0.00 0.00 40 1010.7
20260504215749 20 233 9.7 20.9 0.00 0.00 0.00 40 1010.6
20260504215246 20 267 14.5 29.0 0.00 0.00 0.00 40 1010.6
20260504214742 20 263 12.9 17.7 0.00 0.00 0.00 39 1010.4
20260504214238 20 324 12.9 24.1 0.00 0.00 0.00 39 1010.6
20260504213735 20 262 11.3 14.5 0.00 0.00 0.00 38 1010.8
20260504213232 20 18 6.4 16.1 0.00 0.00 0.00 39 1010.6
20260504212729 20 283 19.3 29.0 0.00 0.00 0.00 38 1010.8
20260504212225 20 253 8.0 22.5 0.00 0.00 0.00 37 1010.7
20260504211723 20 193 6.4 16.1 0.00 0.00 0.00 37 1010.5
20260504211219 21 217 11.3 20.9 0.00 0.00 0.00 36 1010.4
20260504210717 21 282 8.0 20.9 0.00 0.00 0.00 35 1010.4
20260504210214 21 193 11.3 20.9 0.00 0.00 0.00 35 1010.3
20260504205710 21 252 11.3 16.1 0.00 0.00 0.00 34 1010.5
20260504205208 21 296 11.3 14.5 0.00 0.00 0.00 33 1010.2
20260504204706 21 245 14.5 20.9 0.00 0.00 0.00 33 1010.3
20260504204205 21 238 11.3 16.1 0.00 0.00 0.00 34 1010.3
20260504203703 21 325 4.8 14.5 0.00 0.00 0.00 34 1010.2
20260504203201 21 269 9.7 24.1 0.00 0.00 0.00 33 1010.4
20260504202700 21 295 9.7 20.9 0.00 0.00 0.00 34 1010.3
20260504202158 21 222 11.3 20.9 0.00 0.00 0.00 32 1010.2
20260504201654 21 251 4.8 27.4 0.00 0.00 0.00 33 1010.4
20260504201152 22 290 9.7 16.1 0.00 0.00 0.00 32 1010.4
20260504200649 21 6 8.0 17.7 0.00 0.00 0.00 32 1010.5
20260504200146 21 276 14.5 20.9 0.00 0.00 0.00 33 1010.6
20260504195641 21 271 4.8 16.1 0.00 0.00 0.00 33 1010.5
20260504195138 21 248 14.5 20.9 0.00 0.00 0.00 32 1010.6
20260504194635 21 265 20.9 25.7 0.00 0.00 0.00 31 1010.6
20260504194131 21 250 19.3 24.1 0.00 0.00 0.00 30 1010.5
20260504193627 21 321 3.2 9.7 0.00 0.00 0.00 31 1010.6
20260504193126 21 269 11.3 27.4 0.00 0.00 0.00 32 1010.8
20260504192623 21 222 4.8 17.7 0.00 0.00 0.00 33 1010.6
20260504192121 21 193 6.4 22.5 0.00 0.00 0.00 32 1010.6
20260504191619 21 272 9.7 29.0 0.00 0.00 0.00 31 1010.7
20260504191115 21 275 9.7 20.9 0.00 0.00 0.00 32 1010.5
20260504190611 21 289 8.0 16.1 0.00 0.00 0.00 32 1010.4
20260504190108 21 249 16.1 22.5 0.00 0.00 0.00 31 1010.7
20260504185605 21 242 12.9 20.9 0.00 0.00 0.00 30 1010.8
20260504185101 20 201 14.5 22.5 0.00 0.00 0.00 30 1010.7
20260504184557 21 348 6.4 17.7 0.00 0.00 0.00 30 1010.7
20260504184052 21 259 9.7 17.7 0.00 0.00 0.00 32 1010.8
20260504183549 21 287 22.5 32.2 0.00 0.00 0.00 32 1010.8
20260504183048 21 327 9.7 20.9 0.00 0.00 0.00 32 1010.6
20260504182544 21 195 4.8 33.8 0.00 0.00 0.00 32 1011.0
20260504182042 21 235 8.0 27.4 0.00 0.00 0.00 32 1010.9
20260504181539 20 248 17.7 27.4 0.00 0.00 0.00 31 1011.0
20260504181037 20 300 8.0 12.9 0.00 0.00 0.00 32 1011.3
20260504180536 20 310 9.7 16.1 0.00 0.00 0.00 33 1011.3
20260504180034 20 258 12.9 25.7 0.00 0.00 0.00 32 1011.2
20260504175531 20 240 17.7 27.4 0.00 0.00 0.00 32 1011.6
20260504175028 20 254 16.1 22.5 0.00 0.00 0.00 32 1011.3
20260504174526 20 353 8.0 29.0 0.00 0.00 0.00 33 1011.4
20260504174022 20 244 11.3 27.4 0.00 0.00 0.00 33 1011.2
20260504173519 20 284 12.9 22.5 0.00 0.00 0.00 33 1011.3
20260504173017 20 244 9.7 20.9 0.00 0.00 0.00 32 1011.5
20260504172513 20 249 14.5 33.8 0.00 0.00 0.00 32 1011.5
20260504172009 20 269 9.7 22.5 0.00 0.00 0.00 32 1011.4
20260504171506 20 268 11.3 16.1 0.00 0.00 0.00 32 1011.3
20260504171003 20 298 3.2 20.9 0.00 0.00 0.00 34 1011.4
20260504170459 20 341 9.7 25.7 0.00 0.00 0.00 34 1011.5
20260504160419 19 270 14.5 24.1 0.00 0.00 0.00 34 1012.4
20260504150843 18 257 8.0 32.2 0.00 0.00 0.00 38 1013.2
20260504150339 18 247 11.3 24.1 0.00 0.00 0.00 36 1012.9
20260504141309 17 220 14.5 24.1 0.00 0.00 0.00 39 1013.2
20260504140806 16 308 9.7 25.7 0.00 0.00 0.00 40 1013.4
20260504140302 16 256 14.5 20.9 0.00 0.00 0.00 40 1013.4
20260504130731 14 282 6.4 14.5 0.00 0.00 0.00 46 1014.0
20260504130226 14 295 6.4 11.3 0.00 0.00 0.00 46 1014.0
20260504120150 10 329 3.2 9.7 0.00 0.00 0.00 56 1014.3
20260504110618 8 337 3.2 8.0 0.00 0.00 0.00 57 1014.4
20260504110114 8 286 3.2 3.2 0.00 0.00 0.00 58 1014.5
20260504100539 7 330 4.8 4.8 0.00 0.00 0.00 60 1014.2
20260504081933 7 274 3.2 9.7 0.00 0.00 0.00 58 1013.9
20260504081430 7 252 4.8 8.0 0.00 0.00 0.00 57 1013.8
20260504080926 7 225 4.8 8.0 0.00 0.00 0.00 57 1014.0
20260504080423 7 335 1.6 3.2 0.00 0.00 0.00 58 1013.9
20260504070350 7 215 4.8 4.8 0.00 0.00 0.00 56 1013.8
20260504050738 6 344 1.6 3.2 0.00 0.00 0.00 59 1013.8
20260504050235 6 296 1.6 3.2 0.00 0.00 0.00 60 1013.7
20260504045732 5 325 1.6 3.2 0.00 0.00 0.00 63 1014.2
20260504045227 6 3 0.0 1.6 0.00 0.00 0.00 60 1013.8
20260504044725 6 2 0.0 1.6 0.00 0.00 0.00 59 1013.9
20260504044222 6 343 0.0 3.2 0.00 0.00 0.00 60 1013.7
20260504043719 6 25 1.6 3.2 0.00 0.00 0.00 58 1013.9
20260504043216 6 321 1.6 3.2 0.00 0.00 0.00 60 1013.7
20260504042714 6 313 1.6 4.8 0.00 0.00 0.00 59 1013.6
20260504042210 6 305 1.6 4.8 0.00 0.00 0.00 60 1013.8
20260504041706 5 329 1.6 4.8 0.00 0.00 0.00 61 1013.9
20260504041202 5 319 1.6 4.8 0.00 0.00 0.00 60 1013.7
20260504040659 6 334 1.6 3.2 0.00 0.00 0.00 60 1013.9
20260504040156 5 282 3.2 4.8 0.00 0.00 0.00 60 1013.5
20260504035652 5 324 1.6 1.6 0.00 0.00 0.00 62 1013.6
20260504035150 5 341 1.6 3.2 0.00 0.00 0.00 62 1013.5
20260504034647 6 328 1.6 4.8 0.00 0.00 0.00 61 1013.6
20260504034144 6 347 1.6 4.8 0.00 0.00 0.00 61 1013.7
20260504033642 6 274 4.8 4.8 0.00 0.00 0.00 60 1013.6
20260504033139 6 331 1.6 3.2 0.00 0.00 0.00 60 1013.5
20260504032635 5 334 1.6 4.8 0.00 0.00 0.00 61 1013.5
20260504032132 6 1 0.0 4.8 0.00 0.00 0.00 60 1013.5
20260504031630 6 302 3.2 3.2 0.00 0.00 0.00 61 1013.4
20260504031126 5 293 4.8 8.0 0.00 0.00 0.00 62 1013.5
20260504030623 5 346 1.6 1.6 0.00 0.00 0.00 62 1013.4
20260504030119 6 341 1.6 3.2 0.00 0.00 0.00 60 1013.4
20260504025616 5 321 1.6 4.8 0.00 0.00 0.00 62 1013.1